Theta_e
317 317 318 317 318 318 317 317 317 316 316 316 316 316 316 315 316 319 322 321 322 323 323 323 324 324 322 322 320 318 318 317
318 317 317 317 318 318 317 315 315 316 315 316 316 318 316 315 315 315 319 319 320 323 322 322 323 324 323 322 320 319 319 318
318 317 316 316 317 317 316 316 316 316 316 316 316 318 317 318 318 318 319 320 321 319 319 322 323 325 324 322 321 320 319 318
319 318 316 316 317 317 316 317 316 316 316 316 316 316 316 315 316 316 315 313 316 319 320 322 324 324 324 323 322 321 319 318
320 319 318 317 317 317 317 316 317 315 317 315 315 316 316 315 315 315 315 314 319 319 321 324 324 324 324 324 323 321 320 318
322 320 319 317 317 317 316 316 315 315 315 314 315 316 316 316 316 316 314 317 318 321 324 325 324 324 324 325 324 322 320 319
322 321 319 318 318 318 315 315 316 314 314 314 316 317 317 318 318 319 321 322 320 318 323 325 325 324 325 325 324 323 322 319
323 321 319 318 318 318 317 316 317 315 314 315 318 318 319 321 319 318 320 320 320 319 320 324 324 325 325 325 324 322 321 319
324 322 321 320 319 318 319 318 318 317 315 315 317 320 321 321 322 320 319 320 321 321 322 325 325 325 326 325 324 322 320 318
325 324 322 321 321 320 320 320 320 320 318 316 317 319 321 323 325 324 321 320 321 322 323 325 326 325 325 324 322 320 319 318
326 325 324 323 322 322 322 323 323 323 322 321 321 322 323 324 325 326 325 323 324 325 326 325 326 325 325 323 321 319 317 316
325 325 325 325 325 324 324 324 324 324 325 325 324 325 325 326 326 327 326 324 324 324 325 325 325 324 322 321 319 317 315 313
321 324 325 325 325 325 325 325 325 325 325 326 326 326 326 327 327 327 325 324 325 325 325 325 324 323 321 318 316 314 311 308
318 318 320 325 326 325 325 325 325 326 326 326 327 326 326 327 327 327 326 322 323 325 324 323 321 319 318 315 314 312 309 307
320 321 321 323 325 326 326 325 325 325 327 327 327 327 327 327 326 327 326 324 325 321 321 320 318 316 314 312 309 307 305 304
321 322 321 325 329 328 328 328 328 327 328 327 327 327 326 325 324 324 325 323 321 321 317 314 312 310 309 307 306 305 302 301
322 323 323 327 327 327 327 327 329 329 328 326 325 322 321 321 321 321 318 316 314 314 311 309 307 306 305 304 303 302 299 299
321 323 324 328 326 326 325 323 325 325 322 317 316 317 315 314 315 313 312 310 309 308 305 305 304 303 302 301 299 299 299 299
315 323 324 328 325 323 322 320 318 318 316 315 313 313 311 309 308 307 305 306 305 303 302 301 300 299 299 299 299 298 297 294
Wind_Speed
17 15 13 15 19 21 29 35 36 34 32 32 29 30 30 21 29 27 20 24 19 19 20 17 21 20 24 25 24 21 19 17
20 21 22 20 23 24 27 28 27 30 32 27 22 24 28 27 30 36 18 24 22 21 20 21 20 21 24 25 24 22 20 17
18 22 25 26 27 28 29 31 32 31 29 31 27 28 30 31 30 29 25 23 23 25 24 25 25 23 24 27 27 25 23 21
16 22 27 29 28 31 33 34 39 40 38 36 29 28 29 32 34 33 29 23 27 29 28 30 28 27 27 30 30 29 28 24
17 22 27 32 33 32 35 35 38 40 41 34 32 29 27 31 29 33 32 30 31 32 34 34 33 32 33 33 33 33 32 27
21 24 33 34 33 33 36 36 35 38 40 34 33 30 29 31 32 34 38 38 35 34 38 36 35 34 36 36 35 35 36 29
22 34 33 33 33 32 33 36 33 37 38 38 35 34 32 31 35 35 39 39 39 41 39 40 37 36 36 37 37 34 36 34
20 21 27 33 36 37 36 38 36 40 42 43 41 41 39 34 37 34 31 37 41 44 43 45 43 40 38 37 35 34 31 32
22 24 31 36 40 43 42 42 41 42 44 45 43 40 38 42 39 33 38 43 43 44 42 41 40 35 36 31 34 31 30 26
23 22 33 36 38 43 47 45 45 44 46 46 46 44 45 38 34 38 42 42 42 36 39 37 36 32 32 35 32 28 26 24
21 21 30 36 39 43 45 47 47 51 50 48 48 46 43 37 32 34 41 40 28 25 26 29 33 32 37 31 27 26 24 21
20 19 28 33 36 37 42 44 45 44 44 44 37 35 33 29 32 32 28 35 33 25 23 27 28 26 27 27 25 24 22 23
17 17 24 28 31 34 39 41 43 45 33 27 24 23 29 36 35 31 30 23 24 22 17 16 19 22 24 23 23 21 22 21
8 8 12 21 29 34 37 39 39 29 30 31 34 39 41 41 39 35 38 30 21 23 20 19 21 22 23 23 21 19 18 17
8 8 9 13 21 31 32 31 32 34 33 36 42 40 37 34 35 36 34 30 27 24 19 21 22 22 20 19 17 17 17 16
8 9 8 8 12 17 26 28 35 38 38 36 35 31 29 31 30 27 26 30 27 22 22 21 21 20 20 19 17 18 16 14
12 9 8 9 14 20 21 23 27 31 29 26 29 30 31 30 29 29 29 26 22 21 20 20 20 18 17 17 17 16 15 14
12 11 12 16 20 27 26 31 32 31 29 29 30 31 31 32 31 28 26 25 23 21 21 20 19 18 17 17 17 16 12 8
12 13 10 19 23 23 27 28 30 29 28 27 30 32 31 30 29 28 26 25 25 25 23 22 22 21 19 17 15 13 12 9
Wind_Direction
175 179 185 173 164 155 161 162 168 172 176 176 174 176 173 173 179 179 188 196 196 204 205 209 213 214 211 205 205 203 211 221
175 178 187 186 177 170 173 173 177 174 177 180 183 185 187 193 192 193 210 209 210 210 216 221 223 225 206 210 208 212 218 218
177 177 181 189 187 184 185 184 181 182 180 184 188 189 189 196 209 218 223 221 221 223 229 230 228 228 220 217 217 218 226 219
177 184 185 188 191 192 191 192 193 188 188 192 195 199 205 217 216 219 224 233 236 236 239 232 229 231 231 225 222 223 221 218
176 186 191 192 197 192 193 192 193 195 194 195 198 200 211 217 221 220 227 240 238 241 240 234 234 233 234 233 230 227 225 221
185 189 194 194 193 192 193 195 198 196 199 200 201 207 212 215 223 227 233 241 237 242 237 235 237 237 236 238 232 229 231 226
191 193 187 192 193 193 193 194 200 198 200 203 206 210 212 219 225 225 233 236 239 240 241 239 238 238 237 236 236 235 233 231
189 188 190 191 190 192 194 198 203 201 202 206 210 215 217 222 224 226 229 234 236 236 238 239 238 237 238 240 238 232 231 231
195 193 193 194 194 191 194 199 205 205 206 211 215 219 222 227 229 226 232 235 237 236 237 235 234 244 241 245 241 232 231 231
199 200 197 196 196 199 197 199 205 206 208 211 215 220 224 227 229 232 232 238 240 239 239 235 233 241 245 237 228 224 228 229
205 202 200 201 201 202 203 205 206 208 208 210 214 218 222 224 231 238 238 236 240 234 236 233 238 248 238 232 220 223 227 227
205 207 207 205 204 203 205 206 209 210 212 212 214 220 224 227 225 237 246 240 239 246 245 236 232 239 227 219 219 219 217 216
197 199 202 203 206 210 210 212 211 214 207 207 208 228 227 229 238 225 236 256 242 236 233 220 220 218 215 212 212 212 211 205
165 167 195 205 208 212 212 213 215 210 204 204 208 211 216 225 227 229 239 239 245 219 201 199 201 203 205 210 216 210 206 205
186 164 177 172 199 213 212 208 203 199 188 198 211 213 216 215 218 225 226 232 222 201 200 203 202 201 199 197 193 190 191 191
205 187 174 162 160 180 194 188 189 188 192 198 208 211 217 208 203 203 199 195 194 193 192 190 187 184 182 181 179 177 177 177
216 195 156 161 163 160 161 149 176 186 187 182 192 187 188 190 192 189 181 179 175 176 175 170 166 168 164 167 169 167 167 172
198 196 174 173 174 169 164 154 164 169 169 163 161 164 164 164 169 167 167 169 166 164 160 157 154 154 156 153 155 161 168 174
195 196 189 167 165 165 158 150 148 149 152 150 151 156 156 155 158 163 165 161 160 154 148 150 149 150 153 158 164 165 163 160